Regional Weather Roundup
Issued by NWS

Home | Current Version | Previous Version | Graphics & Text | Print | Product List | Glossary On
Versions: 1 2 3 4 5 6 7 8 9 10 11 12 13 14 15 16 17 18 19 20 21 22 23 24 25 26 27 28 29 30 31 32 33 34 35 36 37 38 39 40 41 42 43 44 45 46 47 48 49 50
905
ASUS45 KABQ 261001
RWRNM
NEW MEXICO REGIONAL WEATHER ROUNDUP
NATIONAL WEATHER SERVICE ALBUQUERQUE NM
400 AM MDT TUE SEP 26 2017

NOTE: "FAIR" MEANS FEW OR NO CLOUDS BELOW 12,000 FEET AGL WITH NO
       SIGNIFICANT WEATHER OR OBSTRUCTIONS TO VISION.

      THIS PRODUCT IS RELEASED AS TWO VERSIONS.  ONE VERSION NEAR
      THE TOP OF THE HOUR CONTAINING PRELIMINARY DATA FROM ALBUQUERQUE
      AND OTHER STATIONS.  A FINAL VERSION WITH ADDITIONAL DATA IS
      ISSUED ABOUT 10 MINUTES AFTER THE HOUR.

NMZ501-503-504-510>518-261100-
NORTHWEST PLATEAU/NORTHCENTRAL MOUNTAINS

CITY           SKY/WX    TMP DP  RH WIND       PRES   REMARKS
FARMINGTON     FAIR      37  20  50 E8        30.06R WCI  31
LOS ALAMOS     MOCLDY    51  42  71 SW8       30.13S
SANTA FE       CLOUDY    50  47  89 SE5       30.09R
TAOS           FAIR      33  23  66 NW8       30.16R WCI  26
ANGEL FIRE     FAIR      34  33  96 N3        30.22S

$$
NMZ402-403-502-505>509-261100-
WESTCENTRAL MOUNTAINS/SOUTHWEST MOUNTAINS

CITY           SKY/WX    TMP DP  RH WIND       PRES   REMARKS
GALLUP         FAIR      37  15  40 E9        30.08S WCI  30
GRANTS         FAIR      37  11  34 NW6       30.09S WCI  32
SILVER CITY    FAIR      48  23  36 W9        29.97R

$$
NMZ407-409-411-412-261100-
SOUTHERN DESERTS

CITY           SKY/WX    TMP DP  RH WIND       PRES   REMARKS
DEMING         FAIR      50  25  37 W6        29.92R
LAS CRUCES     FAIR      53  23  31 CALM      29.92S
HOLLOMAN AFB   FAIR      51  25  35 N5        29.94R
ALAMOGORDO     FAIR      55  23  28 N8        29.93R
T OR C         FAIR      59  26  28 N6        29.94S

$$
NMZ519>523-261100-
CENTRAL VALLEYS/CENTRAL HIGHLANDS

CITY           SKY/WX    TMP DP  RH WIND       PRES   REMARKS
ALBUQUERQUE    FAIR      59  49  69 E21G28    30.02R
MORIARTY ARPT  CLOUDY    55  50  84 E9        30.12F
CLINES CORNERS FOG       48  47  96 E14G22    30.14S VSB 1/4
BELEN          FAIR      52  39  61 NW12      30.00S
SOCORRO        FAIR      55  34  45 CALM      29.99R

$$
NMZ524>526-539-540-261100-
SOUTHCENTRAL MOUNTAINS

CITY           SKY/WX    TMP DP  RH WIND       PRES   REMARKS
RUIDOSO        CLOUDY    52  45  76 S9        30.13R

$$
NMZ527>531-261100-
NORTHEAST HIGHLANDS/NORTHEAST PLAINS

CITY           SKY/WX    TMP DP  RH WIND       PRES   REMARKS
LAS VEGAS      FOG       47  47 100 NE7       30.16S VSB 1/4
RATON          NOT AVBL
CLAYTON        CLOUDY    47  47 100 N15       30.11S

$$
NMZ532>537-261100-
EASTCENTRAL PLAINS

CITY           SKY/WX    TMP DP  RH WIND       PRES   REMARKS
SANTA ROSA     CLOUDY    53  52  97 NE13      30.07S
TUCUMCARI      CLOUDY    56  53  90 NE12      30.07R
CANNON AFB     NOT AVBL
CLOVIS AIRPORT RAIN      55  55 100 N13       30.09R

$$
NMZ028-029-538-261100-
SOUTHEAST PLAINS

CITY           SKY/WX    TMP DP  RH WIND       PRES   REMARKS
ROSWELL        CLOUDY    62  59  90 NE10      29.97S
ARTESIA        CLOUDY    66  66 100 NE7       29.96R
CARLSBAD       CLOUDY    67  67 100 E8        29.92R
HOBBS          CLOUDY    64  63  94 E9        29.96S


$$




USA.gov is the U.S. government's official web portal to all federal, state and local government web resources and services.